Location: Stockholm
(59.3330°N, 18.0500°E)
Time: 00:20:07
(UTC+02:00)

NOAA 18 - Pass Details

Date: 06 April 2023
Orbit: 838 x 860 km, 98.9° (Epoch: 02 June)

Event Time Altitude Azimuth Distance (km) Brightness Sun altitude
Exits shadow 23:46:49 17° 230° (SW) 2,043 7.0 -22.8°
Maximum altitude 23:49:40 25° 271° (W) 1,676 6.9 -23.0°
Drops below altitude 10° 23:54:12 10° 326° (NW) 2,510 8.6 -23.1°
Sets 23:57:03 0° 339° (NNW) 3,449 9.8 -23.2°
